Flag for Brazil Weather past 2 weeks in Campo Grande, Mato Grosso Do Sul, Brazil

Now
86 °F

Sunny.


Feels Like: 84 °F
Forecast: N/A
Wind: 13 mph from North

Location: Campo Grande Aeroporto

Current Time: Aug 2, 2015 at 5:09:27 PM

Latest Report: Aug 2, 2015 at 4:00 PM


Visibility: 10 mi

Pressure: 29.92 "Hg (28.23 "Hg at 516m altitude)

Humidity: 29%

Dew point: 50 °F

Location of Campo GrandeLocation

Historic Weather in Campo Grande — Graph

°F

Campo Grande temperature yesterday

Maximum temperature yesterday: 88 °F (at 4:00 PM)
Minimum temperature yesterday: 64 °F (at 4:00 AM)
Average temperature yesterday: 75 °F

Past Weeks' High & Low Weather Summary

 TemperatureHumidityPressure
High88 °F (Jul 29, 3:00 PM)94% (Jul 21, 12:00 AM)30.21 "Hg (Jul 21, 12:00 AM)
Low52 °F (Jul 22, 1:00 AM)21% (Aug 1, 12:00 AM)29.92 "Hg (Aug 2, 3:00 PM)
Average71 °F61%30.07 "Hg
* Reported Jul 18 4:00 PM — Aug 2 4:00 PM, Campo Grande, Weather by CustomWeather, © 2015

Note: Actual official high and low records may vary slightly from our data, if they occured in-between our weather recording intervals... More about our weather records

Advertising

Campo Grande weather history for previous 24 hours

 ConditionsComfort  
Time TempWeatherWind HumidityBarometerVisibility
4:00 PM
Sun, Aug 2
86 °FSunny.13 mph29%29.92 "Hg10 mi
3:00 PM86 °FSunny.9 mph29%29.92 "Hg10 mi
2:00 PM86 °FPassing clouds.13 mph31%29.95 "HgN/A
1:00 PM88 °FSunny.14 mph29%29.98 "Hg10 mi
12:00 PM86 °FSunny.15 mph31%30.01 "Hg10 mi
11:00 AM84 °FSunny.16 mph31%30.04 "Hg10 mi
10:00 AM84 °FSunny.16 mph33%30.04 "Hg10 mi
9:00 AM81 °FSunny.14 mph39%30.04 "Hg10 mi
8:00 AM75 °FSunny.15 mph44%30.01 "Hg10 mi
7:00 AM70 °FSunny.13 mph53%30.01 "Hg10 mi
6:00 AM66 °FSunny.13 mph60%29.98 "Hg10 mi
5:00 AM68 °FClear.8 mph56%29.95 "Hg10 mi
4:00 AM68 °FClear.13 mph56%29.95 "Hg10 mi
3:00 AM70 °FClear.13 mph53%29.98 "Hg10 mi
2:00 AM70 °FClear.13 mph53%29.98 "Hg10 mi
1:00 AM70 °FClear.13 mph53%30.01 "Hg10 mi
12:00 AM72 °FClear.12 mph50%30.01 "Hg10 mi
11:00 PM
Sat, Aug 1
70 °FClear.10 mph53%30.01 "Hg10 mi
10:00 PM72 °FClear.12 mph50%30.01 "Hg10 mi
9:00 PM68 °FClear.9 mph56%30.01 "Hg10 mi
8:00 PM70 °FPassing clouds.8 mph53%30.01 "HgN/A
7:00 PM70 °FPassing clouds.7 mph53%30.01 "HgN/A
6:00 PM77 °FPassing clouds.6 mph42%29.98 "HgN/A
5:00 PM84 °FClear.5 mph33%29.98 "Hg10 mi
Weather by CustomWeather, © 2015

See weather overviewHow to use our weather pages